Location: Unspecified
(34.4950°S, 58.5160°W)
Time: 16:05:27
(UTC+00:00)

Cosmos 1655 Rocket - Pass Details

Date: 05 July 2022
Orbit: 971 x 1005 km, 83.0° (Epoch: 11 August)

Event Time Altitude Azimuth Distance (km) Brightness Sun altitude
Rises 23:21:56 0° 341° (NNW) 3,713 7.4 -29.2°
Reaches altitude 10° 23:24:31 10° 336° (NNW) 2,773 6.7 -29.8°
Maximum altitude 23:30:42 51° 261° (W) 1,256 4.8 -31.0°
Enters shadow 23:36:47 11° 186° (S) 2,742 6.3 -32.3°
